This demonstration page uses our WeatherBlox Daily Observations layout. Learn more.

Left ArrowRight Arrow

39.12711, -84.51439

Hourly Observations for September 21, 2022

Temp ( °F °C ) Dew Point ( °F °C ) Humidity (%) Winds ( mph kmh ) Pressure ( in mb ) Visibility ( mi km ) Precip ( " mm )
12:53 am 00:53 Clear with Mist and Fog 65 18.3 65 18.3 100 100 Calm 29.98 1015 5 8 0.00 0.00
1:25 am 01:25 Clear with Mist and Fog 63 17.2 63 17.2 100 100 Calm 29.98 1015 2 2 0.00 0.00
1:42 am 01:42 Clear with Mist and Fog 65 18.3 65 18.3 100 100 Calm 29.98 1015 3 5 0.00 0.00
1:53 am 01:53 Clear with Mist and Fog 65 18.3 65 18.3 100 100 Calm 29.98 1015 6 10 0.00 0.00
6:01 am 06:01 Clear with Mist and Fog 64 17.8 64 17.8 100 100 Calm 29.97 1015 5 8 0.00 0.00
6:53 am 06:53 Mostly Clear 64 17.8 64 17.8 100 100 Calm 29.97 1015 8 13 0.00 0.00
7:53 am 07:53 Sunny 64 17.8 63 17.2 96 96 S 5 7 29.98 1015 10 16 0.00 0.00
8:53 am 08:53 Sunny 69 20.6 66 18.9 90 90 Calm 29.96 1015 10 16 0.00 0.00
9:53 am 09:53 Sunny 74 23.3 67 19.4 79 79 S 6 9 29.95 1014 10 16 0.00 0.00
10:53 am 10:53 Sunny 79 26.1 69 20.6 72 72 SSW 3 6 29.95 1014 10 16 0.00 0.00
11:53 am 11:53 Sunny 85 29.4 72 22.2 65 65 SSW 5 7 29.92 1013 9 14 0.00 0.00
12:53 pm 12:53 Sunny 90 32.2 70 21.1 52 52 W 8 13 29.91 1013 10 16 0.00 0.00
1:53 pm 13:53 Sunny 92 33.3 68 20 46 46 WSW 12 19 29.89 1012 10 16 0.00 0.00
2:53 pm 14:53 Sunny 93 33.9 66 18.9 41 41 W 13 20 29.86 1011 10 16 0.00 0.00
3:53 pm 15:53 Partly Cloudy 94 34.4 66 18.9 40 40 WSW 10 17 29.84 1010 10 16 0.00 0.00
4:53 pm 16:53 Mostly Sunny 89 31.7 66 18.9 47 47 WSW 12 19 29.83 1010 10 16 0.00 0.00
5:53 pm 17:53 Sunny 87 30.6 70 21.1 57 57 SSW 7 11 29.81 1010 10 16 0.00 0.00
6:53 pm 18:53 Sunny 83 28.3 68 20 61 61 SSW 6 9 29.82 1010 10 16 0.00 0.00
7:53 pm 19:53 Mostly Clear with Light Rain 84 28.9 67 19.4 57 57 WNW 15 24 29.85 1011 10 16 0.01 0.13
8:53 pm 20:53 Clear 76 24.4 67 19.4 74 74 WSW 16 26 29.87 1012 10 16 0.01 0.25
9:53 pm 21:53 Mostly Clear 73 22.8 67 19.4 81 81 Calm 29.85 1011 10 16 0.00 0.00
10:53 pm 22:53 Clear 71 21.7 67 19.4 87 87 Calm 29.84 1011 10 16 0.00 0.00
11:53 pm 23:53 Mostly Cloudy 73 22.8 66 18.9 79 79 SSE 5 7 29.84 1010 10 16 0.00 0.00

Powered by AerisWeather